Regional Weather Roundup
Issued by NWS Wakefield, VA

Home | Current Version | Previous Version | Graphics & Text | Print | Product List | Glossary On
Versions: 1 2 3 4 5 6 7 8 9 10 11 12 13 14 15 16 17 18 19 20 21 22 23 24 25 26 27 28 29 30 31 32 33 34 35 36 37 38 39 40 41 42 43 44 45 46 47
591
ASUS41 KAKQ 080914
RWRAKQ

REGIONAL WEATHER ROUNDUP
NATIONAL WEATHER SERVICE WAKEFIELD VA
400 AM EST MON FEB 08 2016

Note: "fair" indicates few or no clouds below 12,000 feet with no
significant weather and/or obstructions to visibility. * = Denotes
station may not report precipitation (e.g., rain,snow,etc.),
thunder or fog.

VAZ042-051-052>054-056-081000-
NORTHERN VIRGINIA

CITY           SKY/WX    TMP DP  RH WIND       PRES   REMARKS
WASH NATIONAL  MOCLDY    36  22  56 N10       29.76F
DULLES         MOCLDY    32  21  64 N6        29.78S
FORT BELVOIR   FAIR      36  21  54 NW7       29.76S
QUANTICO       FAIR      37  21  52 N12       29.78S
FREDERICKSBRG* FAIR      35  23  62 NW5       29.77R
STAFFORD*      FAIR      32  22  65 NW9       29.81R
WARRENTON      FAIR      31  24  76 NW5       29.78R
CULPEPER*      FAIR      27  22  79 CALM      29.79S
MANASSAS*      FAIR      32  23  69 NW5       29.79R
LEESBURG*      FAIR      32  27  80 NW6       29.79S
WINCHESTER     FAIR      27  21  80 CALM      29.79S
FRONT ROYAL*   FAIR      25  23  93 CALM      29.78F
LURAY*         FAIR      23  23 100 CALM      29.79S
$$

VAZ048-049-060>072-079>083-081000-
CENTRAL AND SOUTH CENTRAL VIRGINIA

CITY           SKY/WX    TMP DP  RH WIND       PRES   REMARKS
RICHMOND       FAIR      34  22  61 NW10      29.75S
CHESTERFIELD*  FAIR      32  12  43 NW9       29.77R
PETERSBURG*    FAIR      36  19  51 NW8       29.77R
HANOVER        FAIR      33  22  63 NW9       29.78R
TAPPAHANNOCK*  FAIR      38  23  54 NW6       29.73F
QUINTON*       FAIR      36  22  58 NW7       29.74R
CHARLOTTSVILLE FAIR      28  21  75 CALM      29.78S
GORDONSVILLE*  FAIR      28  23  81 CALM      29.77F
ORANGE*        FAIR      32  23  69 CALM      29.80R
LOUISA*        FAIR      32  23  69 NW5       29.77R
BUMPASS*       FAIR      34  22  61 CALM      29.77R
FARMVILLE*     FAIR      32  24  72 CALM      29.77F
CREWE*         FAIR      33  23  68 NW6       29.77S
FORT PICKETT*  FAIR      32  23  69 NW7       29.77R
CHASE CITY*    FAIR      29  24  84 CALM      29.78F
CLARKSVILLE*   FAIR      30  27  86 CALM      29.78F
SOUTH HILL*    FAIR      32  23  69 NW3       29.83R
LAWRENCEVILLE* FAIR      33  23  66 NW5       29.77R
EMPORIA*       FAIR      34  21  60 W6        29.78R
$$

VAZ088>098-081000-
SOUTHEAST VIRGINIA

CITY           SKY/WX    TMP DP  RH WIND       PRES   REMARKS
NORFOLK        FAIR      42  28  57 N20       29.68R
VIRGINIA BEACH MOCLDY    44  30  57 N21G32    29.67R
NORFOLK NAVAL  MOCLDY    41  27  57 N13G22    29.70R
WEST POINT*    FAIR      37  22  54 NW5       29.73S
SALUDA*        NOT AVBL
NEWPORT NEWS   FAIR      39  24  55 N13       29.70R
LANGLEY AFB    CLOUDY    40  25  55 N14G20    29.68R
FORT EUSTIS    FAIR      40  20  44 N10G16    29.68S
WILLIAMSBURG*  FAIR      41  25  52 N12       29.71F
HR EXEC AP*    FAIR      39  25  56 N6        29.70R
FRANKLIN*      FAIR      37  22  53 NW8       29.72R
US460-WAKEFLD  FAIR      39  21  48 NW7       29.72S
$$

VAZ020-022-025-037-045-081000-
WEST CENTRAL AND SOUTHWEST VIRGINIA

CITY           SKY/WX    TMP DP  RH WIND       PRES   REMARKS
STAUNTON*      FAIR      26  24  91 CALM      29.79F
WAYNESBORO*    FAIR      24  22  91 S3        29.77F
HOT SPRINGS VA FAIR      33  21  62 CALM      29.68F
LYNCHBURG      FAIR      25  22  88 CALM      29.79F
DANVILLE       FAIR      29  23  78 SW3       29.81F
SOUTH BOSTON*  FAIR      28  25  89 SW3       29.80S
MARTINSVILLE   FAIR      21  20  96 CALM      29.83F
ROANOKE        FAIR      27  23  85 CALM      29.80F
BLACKSBURG     FAIR      25  24  93 CALM      29.79F
DUBLIN*        MOCLDY    31  26  81 SW6       29.78F
MARION*        FAIR      33  24  67 W7        29.78F
HILLSVILLE*    MOCLDY    34  22  61 CALM      29.74F
RICHLANDS*     FAIR      36  19  50 SW7       29.75F
WISE*          CLOUDY    34  18  51 SW6       29.75F
ABINGDON*      FAIR      30  24  78 CALM      29.78F
$$

MDZ021>025-VAZ099-100-081000-
SOUTHERN MARYLAND AND THE DELMARVA PENINSULA

CITY           SKY/WX    TMP DP  RH WIND       PRES   REMARKS
PATUXENT RIVER CLOUDY    39  25  57 N18G24    29.71F
BAY BRIDGE APT   N/A     37  27  65 N10G17    29.73F
LEONARDTOWN    CLOUDY    36  23  60 NW6       29.72F
DOVER          CLOUDY    37  29  72 N13       29.69R
GEORGETOWN     CLOUDY    39  31  72 N13G25    29.69R
EASTON         CLOUDY    37  26  63 N9        29.74S
CAMBRIDGE      CLOUDY    37  27  65 N9G17     29.70R
SALISBURY      CLOUDY    39  31  72 N13       29.68R
OCEAN CITY     CLOUDY    41  34  76 N17G31    29.65R
WALLOPS ISLAND CLOUDY    40  32  73 N16G26    29.66R
ACCOMACK*      MOCLDY    37  30  75 N14G21    29.67R
$$

NCZ012>017-030>032-081000-
NORTH CENTRAL AND EASTERN NORTH CAROLINA

CITY           SKY/WX    TMP DP  RH WIND       PRES   REMARKS
ROANOKE RAPIDS FAIR      36  23  60 NW8       29.77R
RALEIGH        PTCLDY    32  22  66 CALM      29.81F
ELIZABETH CITY CLOUDY    40  29  64 NW18      29.67R
AHOSKIE*       CLEAR     37  20  52 W6        29.74R
EDENTON*       CLOUDY    40  28  60 NW10      29.70R
CURRITUCK*     CLOUDY    40  31  69 NW12G20   29.67R
KILL DEVIL HLS CLOUDY    41  33  74 NW12G23   29.63R
MANTEO         CLOUDY    41  35  78 N18G26    29.64R
CAPE HATTERAS  CLOUDY    42  36  79 NW16G28   29.62R
TARBORO*       FAIR      37  24  57 NW7       29.78R
GOLDSBORO      NOT AVBL
WASHINGTON     CLEAR     38  23  55 CALM      29.73R
GREENVILLE     CLEAR     37  23  56 NW10      29.79R
NEW BERN       CLEAR     38  23  55 NW9       29.75R
WILMINGTON     CLEAR     39  26  59 NW12      29.82R
$$

VAZ048-081000-
ELSEWHERE

CITY           SKY/WX    TMP DP  RH WIND       PRES   REMARKS
HARRISBURG PA  MOCLDY    31  24  75 NW14      29.78F WCI  21
BALTIMORE      CLOUDY    38  21  50 NW9       29.74F
ANNAPOLIS      CLOUDY    39  25  57 N9        29.73F
ANDREWS AFB    FAIR      35  21  56 NW8       29.73F
PHILADELPHIA   CLOUDY    39  20  46 NE21G28   29.72F
HENDERSON NC   CLEAR     34  22  62 NW5       29.78F
GREENSBORO     PTCLDY    29  23  78 CALM      29.80F
ROCKY MOUNT    CLEAR     36  23  59 NW8       29.79R
$$

VAZ100-081000-
MARINE

STATION/POSITION TIME  TEMP    WIND        PRES    WAVE   SWELL
                       AIR SEA DIR/SP/G            HT/PER HT/PER
                 (UTC) (F)     (DEG/KT/KT) (MB)    (FT/S) (FT/S)
BRANDYWINE LGT   0800   39      30/ 31/ 34 1004.0F
CAPE MAY NJ      0800   39 42   20/  8/ 13 1003.6F
LEWES DE         0800   40 41   20/ 25/ 28 1004.1F
15NM E FENWICK I 0850   44 45              1001.8R  13/ 9
OCEAN-CITY-INLET 0800   40 41   20/ 18/ 28 1002.1R
WACHAPREAGUE VA  0800   39 41  350/  6/ 17 1003.6R
THOMAS POINT MD  0900   39     360/ 16       N/A
GOOSES REEF MD   0900   40 40  360/ 17/ 21 1007.2F   2/ 3
COVE POINT MD    0800   39     360/ 20/ 26 1006.8R
SOLOMONS ISLAND  0800   40 41  350/ 15/ 20   N/A
BISHOPS HEAD MD  0800   39 40  340/ 13/ 18 1004.1F
POTOMAC MD       0900   40 40  360/ 16/ 21 1005.2R   1/ 3
CAMBRIDGE MD     0800   40 40  340/ 15/ 20 1004.9F
LEWISETTA VA     0800   40 41  340/ 13/ 18 1005.9R
RAPPAHANNOCK LGT 0800          340/ 27/ 30 1004.2R
STINGRAY PT      0800   42 42  350/ 19/ 25 1004.7R   3/ 3
YORK RVR RNG VA  0800   42     360/ 22/ 26 1003.7S
YORKTOWN VA      0800   42 42  350/ 14/ 17 1005.0R
JAMESTOWN VA     0900   40 43  330/ 10/ 16   N/A
DOMINION TERM VA 0800   42     360/ 14/ 20 1004.9R
KIPTOPEKE VA     0800      43  350/ 23/ 30   N/A
CHES BAY BRIDGE  0800   42 43  320/ 27/ 32 1003.7R
CAPE HENRY VA    0800   42     340/ 31/ 38   N/A
CHESAPEAKE LGHT  0800   40     340/ 36/ 39 1002.9R
WILLOUBY STN VA  0800   42     350/ 22/ 25 1027.5S
CAPE HENRY BUOY  0828      45                N/A    10/11   5/11
1ST LANDING BUOY 0900      42                N/A     5/ 5
CAPE CHARLES BUO 0826      44                N/A    10/10   8/10
OFFSHORE WE BUOY 0821      48                N/A    12/10  10/10
64NM E OF VA BCH 0850   49 53   10/ 31/ 41  998.5R  18/11  15/11
DUCK PIER NC     0800   42 52  340/ 25/ 30 1001.4R
44100 DUCK FRF   0824      47                N/A    16/11  10/11
44056 DUCK FRF   0811      44                N/A    14/12  10/12
OREGON INLET NC  0800   41 45  320/ 18/ 23 1001.9R
HATTERAS NC      0800   42 46  320/ 30/ 33 1002.0R
DIAMOND SHLS NC  0850   46 71  330/ 31/ 37 1000.9R  14/12  11/12
$$




USA.gov is the U.S. government's official web portal to all federal, state and local government web resources and services.